Regional Weather Roundup
Issued by NWS

Home | Current Version | Previous Version | Text Only | Print | Product List | Glossary Off
Versions: 1 2 3 4 5 6 7 8 9 10 11 12 13 14 15 16 17 18 19 20 21 22 23 24 25 26 27 28 29 30 31 32 33 34 35 36 37 38 39 40 41 42 43 44 45 46 47 48 49 50

211
ASUS45 KCYS 292210
RWRWY

WYOMING REGIONAL WEATHER ROUNDUP
NATIONAL WEATHER SERVICE CHEYENNE WY
400 PM MDT MON MAY 29 2017

NOTE:  "FAIR" INDICATES FEW OR NO CLOUDS BELOW 12,000 FEET
WITH NO SIGNIFICANT WEATHER AND/OR OBSTRUCTIONS TO VISIBILITY.

WYZ001-292300-
YELLOWSTONE NATIONAL PARK

CITY           SKY/WX    TMP DP  RH WIND       PRES   REMARKS
LK YELLOWSTONE   N/A     55  26  32 CALM      30.34F
W YELLOWSTONE  NOT AVBL

$$
WYZ002>013-054>058-071-098>099-292300-
NORTHERN WYOMING

CITY           SKY/WX    TMP DP  RH WIND       PRES   REMARKS
JACKSON        MOSUNNY   66  30  26 N8        30.24F
CODY           FAIR      68  36  30 NE8       30.22F
GREYBULL       FAIR      74  28  18 NW16G24   30.14F
WORLAND        FAIR      74  34  23 N14       30.16F
SHERIDAN       FAIR      69  36  29 NW21      30.19F
BUFFALO        FAIR      66  30  26 N23G36    30.21S
GILLETTE       FAIR      67  31  26 N16G29    30.18S
HULETT         FAIR      63  28  27 NW10G23   30.18F
NEWCASTLE      FAIR      64  19  17 NW17G26   30.17F

$$
WYZ014>020-022>026-101>103-292300-
CENTRAL WYOMING

CITY           SKY/WX    TMP DP  RH WIND       PRES   REMARKS
BIG PINEY      FAIR      65  32  29 W9        30.26F
PINEDALE       FAIR      64  30  27 NE7       30.26F
DUBOIS         MOCLDY    63  30  29 SE18      30.24F
LANDER         FAIR      69  41  36 E6        30.20F
RIVERTON       PTSUNNY   67  37  33 N7        30.21F
CASPER         FAIR      67  35  30 VRB6      30.20F
DOUGLAS        FAIR      67  35  30 NE6       30.20F

$$
WYZ021-027>030-104>119-292300-
SOUTHERN WYOMING

CITY           SKY/WX    TMP DP  RH WIND       PRES   REMARKS
EVANSTON       FAIR      67  29  24 VRB5      30.25F
KEMMERER         N/A     64  30  27 CALM      30.28S
FORT BRIDGER   FAIR      68  27  21 W3        30.28F
ROCK SPRINGS   FAIR      67  29  24 VRB6      30.24F
DIXON            N/A     67  31  26 CALM      30.25F
RAWLINS        FAIR      64  32  30 NW7       30.26F
SARATOGA       FAIR      63  30  29 N15G23    30.28S
LARAMIE        FAIR      58  35  42 VRB6      30.27F
CHEYENNE       LGT RAIN  59  47  64 S12       30.24S
TORRINGTON     FAIR      71  28  20 N18G26    30.14F
PINE BLUFFS    CLOUDY    64  36  34 N7G16     30.20F

$$




USA.gov is the U.S. government's official web portal to all federal, state and local government web resources and services.